Location: Champs
(48.8539°N, 2.6040°E)
Time: 06:38:03
(UTC+00:00)

Cosmos 1953 - Pass Details

Date: 30 May 2022
Orbit: 533 x 555 km, 82.5° (Epoch: 03 July)

Event Time Altitude Azimuth Distance (km) Brightness Sun altitude
Rises 23:13:49 0° 356° (N) 2,725 7.5 -18.9°
Reaches altitude 10° 23:16:06 10° 4° (N) 1,823 6.2 -18.9°
Maximum altitude 23:19:53 40° 75° (ENE) 817 3.2 -19.0°
Enters shadow 23:21:05 31° 115° (ESE) 964 3.2 -19.0°
